SL-16 DEB

Satellite information

Favourite Embed

Satellite Type and Status

DEBRISIN ORBIT

Key statistics

Satellite SL-16 DEB at a glance.

Uptime

11882

Days in orbit

Revolutions

≈ 14.1

Per day

Orbit

LEO

Low Earth Orbit

Inclination

70.8

Latest

Satellite identification and parameters

Extended collection of information and parameters for SL-16 DEB.

Object identification

Identified? True

Debris? True

Object name: SL-16 DEB

International designator: 1992-093DZ

Object number (NORAD): 22432

Object ID (CCSDS): 22432

Country: COMMONWEALTH OF INDEPENDENT STATES (CIS)

Current information (Y/N): Y

RCS size: SMALL

Orbital parameters

Period: 102.381 minutes

Inclination: 70.8322 deg

SMA: 7249.476 km

Apoapsis: 943.106 km

Periapsis: 799.575 km

RAAN: 247.4654 deg

Eccentricy: 0.0098994

Argument of periapsis: 134.6064 deg

Mean anomaly: 350.7802 deg

Mean motion: 14.06510134 rev/day

Mean motion (dot): 0.00000412 rev/day2

B* drag term: 0.00026554 1/REarth

Two-line elements (TLE)

Creation date: July 6, 2025, 10:46 p.m.

Reference frame: TEME

Reference center: EARTH

Epoch: July 6, 2025, 2:49 p.m. UTC

TLE line 0: 0 SL-16 DEB

TLE line 1: 1 22432U 92093DZ 25187.61779927 .00000412 00000-0 26554-3 0 9999

TLE line 2: 2 22432 70.8322 247.4654 0098994 134.6064 350.7802 14.06510134657325

Live tracking on map

Real-time ground track for satellite SL-16 DEB.

In-orbit conjunctions

A list of the most updated potential collisions computed for object SL-16 DEB.

Target Orbit TCA Probability of collision Miss distance Type
IRS 1B SSO 2025-01-30 18:40:58 0.000164475 87.0 (m) PAYLOAD

Associated space launch

Second generation ELING satellite

SL-16 DEB was lifted into orbit during the mission ‘Zenit-2 | Tselina-2 12’, on board a Zenit-2 space rocket.

The launch took place on Dec. 25, 1992, 5:56 a.m. from 45/1.

For more information about the launch, click the button.

Launch to space Zenit-2 | Tselina-2 12
Zenit-2 | Tselina-2 12

Agency: N/A

Status: Launch Successful

Launch date: Dec. 25, 1992, 5:56 a.m. UTC

Rocket: Zenit-2

Launch pad: 45/1

Location: Baikonur Cosmodrome, Republic of Kazakhstan

...

Latest news about this satellite

There are no fresh news available about this satellite. Check back as we update our databases every day.


Newsletter sign-up

Weekly statistics, charts and insights to help you stay on top of the space industry.